Regional Weather Roundup
Issued by NWS Huntsville, AL

Home | Current Version | Previous Version | Text Only | Print | Product List | Glossary On
Versions: 1 2 3 4 5 6 7 8 9 10 11 12 13 14 15 16 17 18 19 20 21 22 23 24 25 26 27 28 29 30 31 32 33 34 35 36 37 38 39 40 41 42 43 44 45 46 47 48 49 50
000
ASUS44 KHUN 231024
RWRHUN

WEATHER ROUNDUP FOR THE TENNESSEE VALLEY
NATIONAL WEATHER SERVICE HUNTSVILLE AL
500 AM CDT WED APR 23 2014

ALZ001>004-231100-
NORTHWEST ALABAMA

CITY           SKY/WX    TMP DP  RH WIND       PRES   REMARKS
COURTLAND HCN    N/A     48 N/A N/A CALM        N/A
RUSSELLVILLE     N/A     45 N/A N/A MISG        N/A
SHOALS AIRPORT CLEAR     50  43  77 CALM      29.99R
SHOALS TVA RES   N/A     48 N/A N/A MISG        N/A
$$

ALZ005>007-016-231100-
NORTH CENTRAL ALABAMA

CITY           SKY/WX    TMP DP  RH WIND       PRES   REMARKS
CULLMAN AG STN   N/A     52 N/A N/A N5          N/A
DECATUR AP     CLEAR     48  45  89 CALM      29.97R
HUNTSVILLE AP  CLEAR     53  45  74 CALM      29.96R
HUN NWS/UAH      N/A     53  41  62 NW1         N/A
MERIDIANVILLE  CLEAR     45  37  76 CALM      29.97R
VINEMONT AP    FAIR      49  45  85 CALM      29.98R
$$

ALZ008>010-231100-
NORTHEAST ALABAMA

CITY           SKY/WX    TMP DP  RH WIND       PRES   REMARKS
ALBERTVILLE    CLEAR     54  48  82 N3        29.94R
CROSSVILLE       N/A     50 N/A N/A CALM        N/A
FORT PAYNE     FOG       46  45  93 CALM      29.93S VSB 1/2
SCOTTSBORO AP  MOCLDY    46  46 100 CALM      29.96R
SCOTTSBORO HCN   N/A     46 N/A N/A MISG        N/A
VALLEY HEAD      N/A     46 N/A N/A MISG        N/A
$$

TNZ076-096-097-231100-
SOUTHEASTERN MIDDLE TENNESSEE

CITY           SKY/WX    TMP DP  RH WIND       PRES   REMARKS
FAYETTEVILLE   FAIR      49  39  68 N9        29.95S
TULLAHOMA      CLEAR     39  37  93 CALM      29.98R
WINCHESTER     MOCLDY    39  39 100 CALM      29.97S VSB 3/4
$$

...SURROUNDING SITES...

CITY           SKY/WX    TMP DP  RH WIND       PRES   REMARKS
ATLANTA        CLEAR     58  54  86 NW10      29.88R
ANNISTON       PTCLDY    58  53  84 N9        29.92R
BIRMINGHAM     CLEAR     57  53  86 CALM      29.95R
CHATTANOOGA    CLEAR     53  39  59 NW7       29.94R
CORINTH        FAIR      45  43  93 CALM      30.00R
DALTON         CLEAR     48  45  87 NW6       29.92S
GADSDEN        CLEAR     52  46  82 CALM      29.93S
GOLDEN TRNGL   CLEAR     55  45  67 N7        29.99R
HALEYVILLE     FAIR      51  44  77 N5        29.99R
JACKSON TN     CLEAR     41  38  89 CALM      30.01R
LEWISBURG      FAIR      40  38  93 CALM      29.98R
MEMPHIS        CLEAR     54  41  61 E5        30.00S
MURFREESBORO   FAIR      47  41  80 N5        29.99R
NASHVILLE      CLEAR     51  39  63 N6        30.00R
OXFORD MS      FAIR      43  41  93 CALM      30.02R
ROME           CLEAR     54  47  77 N6        29.91R
SAVANNAH       CLEAR     42  42 100 CALM      30.00R
TUPELO         CLEAR     51  42  71 NE5       29.97R
TUSCALOOSA     CLEAR     56  55  97 CALM      29.94R FOG
$$

...GULF COAST WEATHER...

CITY           SKY/WX    TMP DP  RH WIND       PRES   REMARKS
GULFPORT       CLEAR     62  59  90 W3        29.92S FOG
PASCAGOULA     FOG       61  61 100 CALM      29.92F VSB 1/4
MOBILE         FOG       57  57 100 NW3       29.93R VSB 1/2
GULF SHORES    FOG       58  58 100 CALM      29.91S VSB 1/2
PENSACOLA      CLEAR     62  62 100 NW5       29.91R FOG
DESTIN         CLEAR     65  62  90 N3        29.90R FOG
PANAMA CITY    CLOUDY    67  65  94 W7        29.90R
APPALACHICOLA  CLOUDY    68  63  84 N3        29.90R
$$




USA.gov is the U.S. government's official web portal to all federal, state and local government web resources and services.